This is the latest recevied weather packets stored in our database for station/object EA3ANS-1. If no packets are shown the sender has not sent any weather packets the latest 10 day(s).
| Time | Temp. | Humidity | Pressure | Rain* | Wind** | Luminosity | Snow |
|---|---|---|---|---|---|---|---|
| 1777335067 | 14.44° C | - | 1015.5 hPa | 0 mm | 0 m/s | - | - |
| 1777329670 | 15.56° C | - | 1016.3 hPa | 0 mm | 0 m/s | - | - |
| 1777313455 | 21.11° C | - | 1015.2 hPa | 0 mm | 2.24 m/s, 143° | - | - |
| 1777312856 | 21.67° C | - | 1015.6 hPa | 0 mm | 2.24 m/s, 127° | - | - |
| 1777311056 | 22.22° C | - | 1015.5 hPa | 0 mm | 1.79 m/s, 169° | - | - |
| 1777310459 | 22.78° C | - | 1015.6 hPa | 0 mm | 3.13 m/s, 184° | - | - |
| 1777308652 | 22.78° C | - | 1015.5 hPa | 0 mm | 3.58 m/s, 152° | - | - |
| 1777307457 | 23.89° C | - | 1015.3 hPa | 0 mm | 4.02 m/s, 172° | - | - |
| 1777306859 | 23.89° C | - | 1015.4 hPa | 0 mm | 3.13 m/s, 105° | - | - |
| 1777306262 | 23.89° C | - | 1015.5 hPa | 0 mm | 4.02 m/s, 174° | - | - |
| 1777305659 | 24.44° C | - | 1014.7 hPa | 0 mm | 2.68 m/s, 141° | - | - |
| 1777305052 | 24.44° C | - | 1015.4 hPa | 0 mm | 3.58 m/s, 136° | - | - |
| 1777303856 | 24.44° C | - | 1015.3 hPa | 0 mm | 3.58 m/s, 176° | - | - |
| 1777302657 | 24.44° C | - | 1015.5 hPa | 0 mm | 2.68 m/s, 122° | - | - |
| 1777302060 | 24.44° C | - | 1015.3 hPa | 0 mm | 3.58 m/s, 120° | - | - |
| 1777301457 | 24.44° C | - | 1015.5 hPa | 0 mm | 3.58 m/s, 139° | - | - |
| 1777300260 | 23.89° C | - | 1015.4 hPa | 0 mm | 4.47 m/s, 146° | - | - |
| 1777299663 | 25° C | - | 1015.6 hPa | 0 mm | 3.58 m/s, 138° | - | - |
| 1777299065 | 25° C | - | 1015.6 hPa | 0 mm | 5.81 m/s, 117° | - | - |
| 1777297870 | 25.56° C | - | 1016 hPa | 0 mm | 3.58 m/s, 183° | - | - |
| 1777297267 | 25.56° C | - | 1016.2 hPa | 0 mm | 3.58 m/s, 169° | - | - |
| 1777296666 | 25.56° C | - | 1016.1 hPa | 0 mm | 2.68 m/s, 90° | - | - |
| 1777296066 | 25.56° C | - | 1016.4 hPa | 0 mm | 3.58 m/s, 160° | - | - |
| 1777295466 | 25.56° C | - | 1016.6 hPa | 0 mm | 3.58 m/s, 160° | - | - |
| 1777294865 | 25.56° C | - | 1016.1 hPa | 0 mm | 3.13 m/s, 111° | - | - |
* Rain latest hour (hover to see other rain measurements)
** Current wind speed in m/s (hover to see current wind gust speed)